"Pseudo-MPEC" for ST22K94

Created 2022 Nov 27 16:22:24 UT using Find_Orb

Click here for an explanation of pseudo-MPECs

 
 Astrometry: 
     ST22K94* C2022 11 22-6vC3'hk$=,jjhnLRL;3kGR`KSp8Astrometry\faLb*_CLPi7lZU68
     ST22K94  C2022 11 22%:`1g!x2#QrN^Cg8Y-y,o)kl0vnygredacted;:YclickFU@WvuUU68
     ST22K94  C2022 11 22.x`Z'DWH\7U5hereC$?hJ)dfor?(+YbQ4\b01rrdXSEW0mmG)DZ3U68
     ST22K94  C2022 11 22*+Q#g7])hKeexplanationQ6QI.;[;:lLa:McwLwS9[8D_%[v/$GU68

Station data:
(U68) JPL SynTrack Robotic Telescope, Auberry  (N37.070387 W119.412990)
   US/California.  Observers N. Saini, C. Zhai, R. Trahan, M. Zhan, M. Shao.
   0.28-m f/2.2 Schmidt + CCD.

Orbital elements:  ST22K94
   Perihelion 2023 Mar 12.59248 +/- 64.6 TT = 14:13:10 (JD 2460016.09248)
Epoch 2022 Nov 22.0 TT = JDT 2459905.5   Earth MOID: 0.0025   Ve: 0.0903
M 237.11164386 +/- 100              (J2000 ecliptic)          AutoNEOCP
n   1.11118181 +/- 0.735            Peri.  239.73684 +/- 60
a   0.92316493 +/- 0.407            Node   313.77758 +/- 60
e   0.1325983 +/- 0.214             Incl.    0.40611 +/- 49
P   0.89/323.97d           H 27.7   G  0.15   U 12.5  SR
q 0.80075482 +/- 0.31    Q 1.04557505 +/- 10.4
From 4 observations 2022 Nov. 22 (35.8 min); mean residual 0".33
Residuals in arcseconds: 
221122 U68  .23+  .07-    221122 U68  .63+  .11-    
221122 U68  .39-  .10+    221122 U68  .47-  .08+    

Ephemerides (geocentric):
Date (UTC) HH   RA             Dec           delta  r     elong  mag " sig PA
---- --------  ------------   ------------  ------ ------ -----  --- --------
2022 11 27 16  22 31 56.595   +21 21 54.81  .01390 .98973 101.8 21.1  35d 156
2022 11 27 17  22 30 55.911   +21 12 10.45  .01392 .98965 101.5 21.1  35d 156
2022 11 27 18  22 29 55.510   +21 02 26.18  .01394 .98957 101.2 21.1  35d 156
2022 11 27 19  22 28 55.392   +20 52 42.05  .01395 .98949 100.9 21.1  36d 156
2022 11 27 20  22 27 55.556   +20 42 58.09  .01397 .98942 100.6 21.1  36d 156
2022 11 27 21  22 26 56.003   +20 33 14.35  .01399 .98934 100.3 21.1  36d 156
2022 11 27 22  22 25 56.733   +20 23 30.88  .01401 .98926 100.0 21.1  36d 156
2022 11 27 23  22 24 57.745   +20 13 47.73  .01402 .98918  99.7 21.2  36d 156
2022 11 28 00  22 23 59.041   +20 04 04.92  .01404 .98910  99.3 21.2  36d 156
2022 11 28 01  22 23 00.618   +19 54 22.52  .01406 .98902  99.0 21.2  36d 156
2022 11 28 02  22 22 02.478   +19 44 40.55  .01408 .98895  98.7 21.2  36d 156
2022 11 28 03  22 21 04.620   +19 34 59.07  .01410 .98887  98.4 21.2  36d 156
2022 11 28 04  22 20 07.043   +19 25 18.11  .01412 .98879  98.1 21.2  36d 156
2022 11 28 05  22 19 09.748   +19 15 37.72  .01414 .98871  97.8 21.2  36d 156
2022 11 28 06  22 18 12.734   +19 05 57.92  .01416 .98863  97.5 21.2  37d 156
2022 11 28 07  22 17 16.000   +18 56 18.77  .01418 .98855  97.2 21.3  37d 156
2022 11 28 08  22 16 19.547   +18 46 40.30  .01420 .98847  96.9 21.3  37d 156
2022 11 28 09  22 15 23.374   +18 37 02.56  .01422 .98840  96.6 21.3  37d 156
2022 11 28 10  22 14 27.480   +18 27 25.56  .01425 .98832  96.3 21.3  37d 156
2022 11 28 11  22 13 31.865   +18 17 49.37  .01427 .98824  96.0 21.3  37d 156
2022 11 28 12  22 12 36.529   +18 08 14.00  .01429 .98816  95.7 21.3  37d 156
2022 11 28 13  22 11 41.470   +17 58 39.50  .01431 .98808  95.4 21.3  37d 156
2022 11 28 14  22 10 46.688   +17 49 05.90  .01434 .98800  95.1 21.4  37d 156
2022 11 28 15  22 09 52.183   +17 39 33.24  .01436 .98792  94.8 21.4  37d 156
2022 11 28 16  22 08 57.953   +17 30 01.55  .01438 .98784  94.5 21.4  37d 156
2022 11 28 17  22 08 03.999   +17 20 30.85  .01441 .98777  94.2 21.4  37d 156
2022 11 28 18  22 07 10.320   +17 11 01.20  .01443 .98769  93.9 21.4  38d 156
2022 11 28 19  22 06 16.914   +17 01 32.61  .01445 .98761  93.6 21.4  38d 156
2022 11 28 20  22 05 23.781   +16 52 05.12  .01448 .98753  93.4 21.4  38d 156
2022 11 28 21  22 04 30.920   +16 42 38.76  .01450 .98745  93.1 21.5  38d 156
2022 11 28 22  22 03 38.331   +16 33 13.56  .01453 .98737  92.8 21.5  38d 156
2022 11 28 23  22 02 46.013   +16 23 49.55  .01456 .98729  92.5 21.5  38d 156
2022 11 29 00  22 01 53.964   +16 14 26.75  .01458 .98721  92.2 21.5  38d 156
2022 11 29 01  22 01 02.185   +16 05 05.20  .01461 .98713  91.9 21.5  38d 156
2022 11 29 02  22 00 10.673   +15 55 44.93  .01463 .98705  91.6 21.5  38d 156
2022 11 29 03  21 59 19.428   +15 46 25.95  .01466 .98697  91.3 21.6  38d 156
2022 11 29 04  21 58 28.450   +15 37 08.30  .01469 .98689  91.0 21.6  38d 156
2022 11 29 05  21 57 37.737   +15 27 52.00  .01471 .98681  90.8 21.6  38d 156
2022 11 29 06  21 56 47.289   +15 18 37.08  .01474 .98673  90.5 21.6  38d 156
2022 11 29 07  21 55 57.103   +15 09 23.57  .01477 .98665  90.2 21.6  39d 156
2022 11 29 08  21 55 07.180   +15 00 11.47  .01480 .98658  89.9 21.6  40d 155
2022 11 29 09  21 54 17.519   +14 51 00.83  .01483 .98650  89.6 21.6  40d 155
2022 11 29 10  21 53 28.118   +14 41 51.66  .01485 .98642  89.4 21.7  40d 155
2022 11 29 11  21 52 38.976   +14 32 43.98  .01488 .98634  89.1 21.7  40d 155
2022 11 29 12  21 51 50.092   +14 23 37.82  .01491 .98626  88.8 21.7  40d 155
2022 11 29 13  21 51 01.466   +14 14 33.20  .01494 .98618  88.5 21.7  40d 155
2022 11 29 14  21 50 13.095   +14 05 30.13  .01497 .98610  88.2 21.7  40d 155
2022 11 29 15  21 49 24.980   +13 56 28.64  .01500 .98602  88.0 21.7  40d 155